Welcome to the New NWS' Forecast!
Most changes are behind the scenes, but click here for differences you might notice.
Latest weather observations around

Olathe, Johnson County Executive Airport (KOJC)

Using English Units (Switch to International System of Units)
Date/ Time (CDT) Wind (mph) Vis. (mi) Weather Sky Cond. Temp (°F) Rel. Humidity Wind Chill (°F) Heat Index (°F) Pressure Precip. (in)
Air Dwpt 6 hour Altimeter (inHg) Sea level (inHg) 1 hr 3 hr 6 hr
Max Min
Jul 19 15:36 NNW 8 10 Mostly Clear FEW070 93 71     49%   100 29.83        
Jul 19 15:17 W 11 10 Thunderstorms FEW070 94 70     46%   100 29.8        
Jul 19 14:53 7 10 Mostly Clear FEW065 94 74     53%   104 29.81 29.77      
Jul 19 13:53 SSW 10 10 Mostly Clear FEW065 FEW080 93 74     54%   103 29.82 29.78      
Jul 19 12:53 S 9 10 Mostly Cloudy FEW049 BKN060 91 75     60%   102 29.85 29.8      
Jul 19 11:53 SW 7 10 Mostly Clear FEW040 90 74     59%   99 29.85 29.81      
Jul 19 10:53 WSW 9 10 Clear CLR 87 75     68%   97 29.85 29.8      
Jul 19 09:53 SW 9 10 Clear CLR 83 76     79%   91 29.86 29.82      
Jul 19 08:53 SW 8 10 Clear CLR 79 75     88%   83 29.87 29.83      
Jul 19 07:53 SSW 8 9 Mostly Cloudy BKN039 BKN080 75 74     96%   77 29.88 29.84      
Jul 19 06:53 S 5 7 Mostly Clear FEW070 72 72     100%   74 29.89 29.85      
Jul 19 06:10 SSE 7 6 Fog/Mist FEW002 71 71     100%   73 29.88        
Jul 19 05:53 SSE 7 7 Clear CLR 71 71     100%   73 29.88 29.84      
Jul 19 04:53 SSE 5 10 Clear CLR 72 72     100%   74 29.89 29.85      
Jul 19 03:53 S 5 10 Clear CLR 71 71     100%   73 29.89 29.86      
Jul 19 02:53 SSE 7 10 Clear CLR 73 71     94%   74 29.89 29.85      
Jul 19 01:53 SSE 7 10 Clear CLR 73 71     94%   74 29.89 29.85      
Jul 19 00:53 SE 7 10 Mostly Clear FEW120 74 70     87%   75 29.92 29.88      
Jul 18 23:53 SSE 5 10 Clear CLR 76 74     94%   78 29.93 29.9      
Jul 18 22:53 ESE 9 10 Partly Cloudy SCT050 78 73     85%   80 29.93 29.89      
Jul 18 21:53 E 7 10 Partly Cloudy FEW060 SCT075 79 73     82%   82 29.93 29.89      
Jul 18 20:53 E 6 10 Mostly Cloudy BKN050 80 73     79%   84 29.91 29.88      
Jul 18 19:53 ESE 7 10 Mostly Clear FEW085 82 73     74%   87 29.9 29.87      
Jul 18 18:53 ESE 9 10 Mostly Clear FEW090 83 73     72%   89 29.91 29.88     0
Jul 18 17:53 ESE 8 10 Partly Cloudy FEW026 SCT036 SCT047 83 73     72%   89 29.92 29.88      
Jul 18 16:53 ESE 9 10 Mostly Cloudy FEW029 BKN060 BKN080 83 72     70%   88 29.92 29.89 0    
Jul 18 15:53 E 10 10 Cloudy FEW027 BKN048 OVC110 82 73     74%   87 29.93 29.9      
Jul 18 15:24 E 11 10 Cloudy BKN027 OVC038 83 74     74%   89 29.95        
Jul 18 14:53 ENE 10 10 Partly Cloudy FEW024 SCT032 SCT043 83 73     72%   89 29.95 29.92      
Jul 18 13:53 E 9 10 Cloudy BKN024 BKN030 OVC036 82 73     74%   87 29.98 29.94      
Jul 18 13:27 ENE 8 10 Mostly Cloudy BKN018 81 73     77%   86 29.98        
Jul 18 13:02 E 9 10 Partly Cloudy FEW018 SCT055 82 73     74%   87 29.99        
Jul 18 12:53 SE 10 10 Mostly Cloudy BKN018 BKN024 BKN055 81 73     77%   86 29.99 29.95      
Jul 18 11:53 ESE 8 10 Cloudy BKN018 BKN023 OVC034 79 73     82%   82 30.01 29.97      
Jul 18 11:20 E 7 10 Cloudy BKN016 OVC024 78 72     82%   79 30.02        
Jul 18 10:53 5 10 Mostly Cloudy BKN014 77 73     88%   79 30.02 29.98      
Jul 18 10:24 ESE 8 10 Mostly Cloudy FEW008 BKN014 BKN019 76 73     91%   77 30.02        
Jul 18 09:53 E 6 10 Cloudy OVC011 74 72     94%   75 30.02 29.99      
Jul 18 09:48 ENE 8 10 Cloudy OVC011 73 72     94%   75 30.03        
Jul 18 09:04 E 8 10 Cloudy BKN007 OVC027 74 72     94%   75 30.02        
Jul 18 08:53 E 6 10 Cloudy BKN OVC026 74 72     94%   75 30.02 29.99      
Jul 18 08:30 E 6 10 Mostly Cloudy BKN007 BKN085 73 71     94%   74 30.02        
Jul 18 08:17 ESE 7 10 Partly Cloudy SCT007 SCT085 72 71     97%   73 30.01        
Jul 18 07:53 SE 6 10 Partly Cloudy SCT080 72 71     97%   73 30.01 29.98      
Jul 18 06:53 ENE 3 10 Clear   70 70     100%     30.01 29.98      
Jul 18 06:45 ESE 3 10 Clear   70 70     100%     30.02        
Jul 18 05:53 ENE 3 10 Mostly Cloudy SCT060 BKN090 70 69     97%     30.01 29.98      
Jul 18 04:53 SE 5 10 Cloudy OVC060 70 70     100%     30.02 29.98 0    
Jul 18 03:53 ESE 7 6 Light Rain and Fog/Mist SCT040 BKN055 OVC075 70 69     97%     30.02 29.98 0 0  
Jul 18 02:53 E 7 10 Cloudy BKN049 OVC060 71 69     93%   72 30.03 29.99      
Jul 18 01:53 E 8 10 Partly Cloudy SCT049 71 68     90%   72 30.04 30.01      
Jul 18 00:53 ENE 7 10 Partly Cloudy SCT049 SCT055 71 69     93%   72 30.05 30.01     0
Jul 17 23:53 ENE 6 10 Cloudy SCT044 BKN050 OVC100 70 69     97%     30.05 30.02      
Jul 17 22:53 ENE 5 10 Mostly Cloudy FEW046 BKN090 BKN110 70 68     93%     30.04 30.01      
Jul 17 21:53 ENE 9 10 Cloudy SCT047 SCT060 OVC080 70 68     93%     30.04 30.01   0  
Jul 17 20:53 E 10 10 Cloudy BKN080 OVC100 71 70     96%   72 30.04 30      
Jul 17 19:53 E 7 10 Cloudy OVC100 72 71     97%   73 30.04 30.01 0    
Jul 17 19:24 ENE 7 10 Cloudy FEW055 OVC100 72 72     100%   74 30.04   0    
Jul 17 18:53 E 9 4 Light Rain and Fog/Mist FEW019 BKN050 OVC090 72 72     100%   74 30.06 30.03 0   1
Jul 17 18:27 E 7 3 Light Rain and Fog/Mist FEW021 BKN046 OVC070 72 72     100%   74 30.06   0    
Jul 17 18:09 ESE 11 2.5 Light Rain and Fog/Mist FEW011 BKN035 OVC047 71 69     93%   72 30.06   0    
Jul 17 17:56 E 15 1.5 Light Rain and Fog/Mist FEW006 BKN016 OVC031 71 70     96%   72 30.06   0    
Jul 17 17:53 E 10 1.5 Light Rain and Fog/Mist FEW006 BKN014 OVC023 71 71     100%   73 30.07 30.04 1    
Jul 17 17:41 3 1 Thunderstorms and Heavy Rain and Fog/Mist FEW006 BKN014 OVC025 72 72     100%   74 30.06   1    
Jul 17 17:37 5 2.5 Thunderstorms and Rain and Fog/Mist OVC012 73 73     100%   75 30.06   1    
Jul 17 17:33 N 9 0.25 Thunderstorms and Heavy Rain BKN009 OVC014 73 73     100%   75 30.05   1    
Jul 17 17:25   0.25 Thunderstorms and Heavy Rain BKN011 BKN016 OVC025 74 73     97%   76 30.01   1    
Jul 17 17:20   0.75 Thunderstorms and Rain and Fog/Mist FEW005 BKN015 OVC025 75 73     94%   77 29.99   0    
Jul 17 17:15 NW 11 2 Thunderstorms and Rain BKN015 BKN023 OVC028 78 73     85%   80 30.01   0    
Jul 17 17:07 N 9 10 Thunderstorms SCT017 OVC026 80 73     79%   84 30.01        
Jul 17 16:53 NNE 10 10 Cloudy BKN029 BKN100 OVC120 82 74     77%   88 30.02 29.98      
Jul 17 16:24 NNE 6 10 Cloudy SCT044 BKN065 OVC110 83 74     74%   89 30.04        
Jul 17 15:53 N 5 10 Mostly Cloudy FEW055 SCT090 BKN110 83 74     74%   89 30.04 30.01      
Jul 17 14:53 ESE 7 10 Mostly Cloudy FEW070 FEW085 BKN110 83 74     74%   89 30.04 30      
Jul 17 13:53 5 10 Clear CLR 82 74     77%   88 30.05 30.01      
Jul 17 12:53 E 6 10 Mostly Clear FEW065 81 73     77%   86 30.05 30.01      
Jul 17 11:53 SE 5 10 Clear CLR 78 72     82%   79 30.07 30.03      
Jul 17 10:53 ESE 5 10 Clear CLR 77 71     82%   78 30.08 30.04      
Jul 17 09:53 SE 5 10 Clear CLR 77 70     79%   78 30.08 30.04      
Jul 17 08:53 E 5 10 Partly Cloudy SCT120 76 70     82%   77 30.08 30.03      
Jul 17 07:53 E 5 10 Mostly Clear FEW120 75 70     84%   76 30.06 30.01      
Jul 17 06:53 E 7 10 Mostly Cloudy BKN120 74 69     85%   75 30.05 30.01      
Jul 17 05:53 ENE 8 10 Clear CLR 74 69     85%   75 30.05 30.01      
Jul 17 04:53 E 6 10 Clear CLR 75 69     82%   76 30.04 30      
Jul 17 03:53 ENE 8 10 Clear   76 69     79%   77 30.03 29.99      
Jul 17 02:53 ENE 5 10 Clear CLR 77 69     77%   78 30.03 29.99      
Jul 17 01:53 ENE 6 10 Clear CLR 78 70     76%   79 30.04 30      
Jul 17 00:53 Calm 10 Clear CLR 77 70     79%   78 30.04 30      
Jul 16 23:53 Calm 10 Clear CLR 76 70     82%   77 30.04 30      
Jul 16 22:53 N 5 10 Clear CLR 81 69     67%   84 30.03 29.99      
Jul 16 21:53 Calm 10 Mostly Cloudy BKN060 79 70     74%   82 30.03 29.99      
Jul 16 20:53 Calm 10 Cloudy BKN048 OVC060 87 68     53%   91 30.01 29.96      
Jul 16 19:53 Calm 10 Mostly Clear FEW070 91 64     41%   93 29.99 29.95      
Jul 16 18:53 NNE 8 10 Clear CLR 91 65     42%   93 29.99 29.94      
Jul 16 17:53 N 7 10 Mostly Clear FEW060 92 66     43%   95 29.99 29.94      
Jul 16 16:53 E 7 10 Mostly Clear FEW060 92 67     44%   95 29.99 29.94      
Jul 16 15:53 N 6 10 Clear CLR 92 66     43%   95 30 29.96      
May 12 18:53 S 14 10 Cloudy OVC055 79 67     67%   80 29.88 29.85      
May 11 23:53 S 10 10 Clear CLR 74 62     66%   74 29.84 29.8      
May 11 11:53 SSW 21 10 Partly Cloudy and Windy SCT037 77 63     62%   77 29.77 29.74      
May 11 08:53 SE 9 10 Mostly Clear FEW110 63 60     90%     29.81 29.78      
Jun 11 16:53 S 25 10 Clear and Windy CLR 87 70     57%   92 29.81 29.77      
Jun 10 20:53 S 15 10 Clear CLR 79 69     72%   80 29.78 29.74      
Jun 09 23:53 S 7 10 Clear CLR 69 60     73%     29.84 29.8      
Jun 09 06:53 S 3 10 Clear CLR 59 55     87%     29.93 29.9      
Jun 08 02:53 ESE 6 10 Clear CLR 62 50     65%     30.04 30.01      
Jun 07 18:53 ESE 5 10 Clear CLR 76 51     42%   75 30.05 30.02      
Jun 07 17:06 SSE 7 10 Clear CLR 78 50     37%   77 30.06        
Jun 07 07:53 NE 5 10 Clear CLR 65 54     68%     30.11 30.09      
Jun 06 07:53 ENE 10 10 Clear CLR 67 58     73%     30 29.97